Location: Home
(42.5358°N, 72.7383°W)
Time: 08:14:08
(UTC-04:00)

A-11 Canister half - Pass Details

Date: 04 July 2022
Orbit: 1514 x 1685 km, 47.2° (Epoch: 15 August)

Event Time Altitude Azimuth Distance (km) Brightness Sun altitude
Rises 00:20:29 0° 266° (W) 4,938 11.7 -24.1°
Reaches altitude 10° 00:23:43 10° 269° (W) 3,948 11.2 -24.2°
Maximum altitude 00:33:52 69° 353° (N) 1,759 9.4 -24.4°
Drops below altitude 10° 00:43:48 10° 76° (ENE) 3,863 11.2 -24.5°
Sets 00:46:55 0° 79° (E) 4,827 11.7 -24.6°
